QPF
0.00 0.00 0.00 0.00 0.00 0.00 0.00 0.00 0.00 0.00 0.00 0.00 0.00 0.00 0.00 0.01 0.02 0.02 0.01 0.00 0.00 0.00 0.00 0.00 0.00 0.00 0.00 0.00 0.00 0.00 0.00 0.00 0.00 0.00 0.00 0.00 0.00 0.00 0.00 0.00 0.00 0.00 0.00 0.00 0.00 0.00 0.00 0.00 0.00 0.00 0.00 0.00 0.00 0.00 0.00 0.01 0.03 0.06 0.06 0.06 0.10 0.12 0.15 0.18 0.21 0.19 0.19 0.27 0.25 0.30 0.30 0.25 0.24 0.47
0.00 0.00 0.00 0.00 0.00 0.00 0.00 0.00 0.00 0.00 0.00 0.00 0.00 0.00 0.00 0.01 0.01 0.01 0.01 0.01 0.00 0.00 0.00 0.00 0.00 0.00 0.00 0.00 0.00 0.00 0.00 0.00 0.00 0.00 0.00 0.00 0.00 0.00 0.00 0.00 0.00 0.00 0.00 0.00 0.00 0.00 0.00 0.00 0.00 0.00 0.00 0.00 0.00 0.00 0.00 0.01 0.01 0.04 0.07 0.06 0.13 0.09 0.12 0.15 0.16 0.20 0.20 0.24 0.21 0.23 0.24 0.24 0.22 0.25
0.00 0.00 0.00 0.00 0.00 0.00 0.00 0.00 0.00 0.00 0.00 0.00 0.00 0.00 0.00 0.00 0.00 0.01 0.01 0.01 0.00 0.00 0.00 0.00 0.00 0.00 0.00 0.00 0.00 0.00 0.00 0.00 0.00 0.00 0.00 0.00 0.00 0.00 0.00 0.00 0.00 0.00 0.00 0.00 0.00 0.00 0.00 0.00 0.00 0.00 0.00 0.00 0.00 0.00 0.00 0.00 0.01 0.03 0.05 0.07 0.18 0.11 0.11 0.12 0.16 0.23 0.23 0.25 0.22 0.23 0.21 0.19 0.19 0.22
0.00 0.00 0.00 0.00 0.00 0.00 0.00 0.00 0.00 0.00 0.00 0.00 0.00 0.00 0.00 0.00 0.00 0.00 0.01 0.01 0.01 0.00 0.00 0.00 0.00 0.00 0.00 0.00 0.00 0.00 0.00 0.00 0.00 0.00 0.00 0.00 0.00 0.00 0.00 0.00 0.00 0.00 0.00 0.00 0.00 0.00 0.00 0.00 0.00 0.00 0.00 0.00 0.00 0.00 0.00 0.01 0.01 0.01 0.04 0.05 0.09 0.14 0.11 0.13 0.14 0.19 0.28 0.25 0.26 0.28 0.25 0.23 0.19 0.22
0.00 0.00 0.00 0.00 0.00 0.00 0.00 0.00 0.00 0.00 0.00 0.00 0.00 0.00 0.00 0.00 0.00 0.00 0.00 0.01 0.01 0.00 0.00 0.00 0.00 0.00 0.00 0.00 0.00 0.00 0.00 0.00 0.00 0.00 0.00 0.00 0.00 0.00 0.00 0.00 0.00 0.00 0.00 0.00 0.00 0.00 0.00 0.00 0.00 0.00 0.00 0.00 0.00 0.00 0.00 0.01 0.01 0.01 0.02 0.03 0.07 0.11 0.10 0.11 0.14 0.17 0.26 0.24 0.26 0.32 0.36 0.30 0.26 0.22
0.00 0.00 0.00 0.00 0.00 0.00 0.00 0.00 0.00 0.00 0.00 0.00 0.00 0.00 0.00 0.00 0.00 0.00 0.01 0.01 0.01 0.01 0.00 0.00 0.00 0.00 0.00 0.00 0.00 0.00 0.00 0.00 0.00 0.00 0.00 0.00 0.00 0.00 0.00 0.00 0.00 0.00 0.00 0.00 0.00 0.00 0.00 0.00 0.00 0.00 0.00 0.00 0.00 0.00 0.00 0.00 0.01 0.01 0.01 0.02 0.04 0.07 0.11 0.14 0.12 0.16 0.21 0.22 0.30 0.33 0.35 0.41 0.31 0.28
0.00 0.00 0.00 0.00 0.00 0.00 0.00 0.00 0.00 0.00 0.00 0.00 0.00 0.00 0.00 0.00 0.00 0.00 0.00 0.01 0.01 0.01 0.01 0.00 0.00 0.00 0.00 0.00 0.00 0.00 0.00 0.00 0.00 0.00 0.00 0.00 0.00 0.00 0.00 0.00 0.00 0.00 0.00 0.00 0.00 0.00 0.00 0.00 0.00 0.00 0.00 0.00 0.00 0.00 0.00 0.00 0.01 0.01 0.01 0.02 0.02 0.05 0.08 0.11 0.10 0.14 0.17 0.25 0.31 0.35 0.30 0.36 0.40 0.33
0.00 0.00 0.00 0.00 0.00 0.00 0.00 0.00 0.00 0.00 0.00 0.00 0.00 0.00 0.00 0.00 0.00 0.00 0.00 0.01 0.01 0.02 0.02 0.01 0.00 0.00 0.00 0.00 0.00 0.00 0.00 0.00 0.00 0.00 0.00 0.00 0.00 0.00 0.00 0.00 0.00 0.00 0.00 0.00 0.00 0.00 0.00 0.00 0.00 0.00 0.00 0.00 0.00 0.00 0.00 0.00 0.00 0.01 0.01 0.01 0.02 0.03 0.05 0.07 0.12 0.16 0.14 0.23 0.26 0.30 0.34 0.27 0.36 0.43
0.00 0.00 0.00 0.00 0.00 0.00 0.00 0.00 0.00 0.00 0.00 0.00 0.00 0.00 0.00 0.00 0.00 0.01 0.01 0.01 0.02 0.03 0.02 0.01 0.00 0.00 0.00 0.00 0.00 0.00 0.00 0.00 0.00 0.00 0.00 0.00 0.00 0.00 0.00 0.00 0.00 0.00 0.00 0.00 0.00 0.00 0.00 0.00 0.00 0.00 0.00 0.00 0.00 0.00 0.00 0.00 0.00 0.01 0.01 0.01 0.01 0.02 0.04 0.05 0.11 0.11 0.12 0.17 0.25 0.30 0.33 0.30 0.26 0.32
0.00 0.00 0.00 0.00 0.00 0.00 0.00 0.00 0.00 0.00 0.00 0.00 0.00 0.00 0.00 0.00 0.01 0.02 0.03 0.02 0.02 0.02 0.02 0.01 0.01 0.00 0.00 0.00 0.00 0.00 0.00 0.00 0.00 0.00 0.00 0.00 0.00 0.00 0.00 0.00 0.00 0.00 0.00 0.00 0.00 0.00 0.00 0.00 0.00 0.00 0.00 0.00 0.00 0.00 0.00 0.00 0.00 0.00 0.01 0.02 0.02 0.03 0.03 0.04 0.09 0.08 0.12 0.14 0.19 0.27 0.33 0.31 0.28 0.25
0.00 0.00 0.00 0.00 0.00 0.00 0.00 0.00 0.00 0.00 0.00 0.00 0.00 0.00 0.00 0.01 0.02 0.02 0.01 0.02 0.02 0.02 0.02 0.01 0.01 0.00 0.00 0.00 0.00 0.00 0.00 0.00 0.00 0.00 0.00 0.00 0.00 0.00 0.00 0.00 0.00 0.00 0.00 0.00 0.00 0.00 0.00 0.00 0.00 0.00 0.00 0.00 0.00 0.00 0.00 0.00 0.00 0.00 0.00 0.01 0.01 0.02 0.04 0.04 0.06 0.07 0.08 0.10 0.16 0.16 0.26 0.35 0.29 0.26
0.00 0.00 0.00 0.00 0.00 0.00 0.00 0.00 0.00 0.00 0.00 0.00 0.00 0.01 0.01 0.01 0.01 0.02 0.02 0.02 0.02 0.01 0.01 0.01 0.00 0.00 0.00 0.00 0.00 0.00 0.00 0.00 0.00 0.00 0.00 0.00 0.00 0.00 0.00 0.00 0.00 0.00 0.00 0.00 0.00 0.00 0.00 0.00 0.00 0.00 0.00 0.00 0.00 0.00 0.00 0.00 0.00 0.00 0.00 0.00 0.01 0.02 0.03 0.03 0.04 0.07 0.08 0.08 0.12 0.15 0.19 0.27 0.37 0.27
0.00 0.00 0.00 0.00 0.00 0.00 0.00 0.00 0.00 0.00 0.00 0.00 0.00 0.00 0.01 0.01 0.02 0.03 0.03 0.01 0.01 0.01 0.01 0.01 0.01 0.01 0.01 0.00 0.00 0.00 0.00 0.00 0.01 0.00 0.00 0.00 0.00 0.00 0.00 0.00 0.00 0.00 0.00 0.00 0.00 0.00 0.00 0.00 0.00 0.00 0.00 0.00 0.00 0.00 0.00 0.00 0.00 0.00 0.00 0.00 0.01 0.01 0.03 0.03 0.03 0.05 0.08 0.06 0.07 0.12 0.16 0.21 0.29 0.33
0.00 0.00 0.00 0.00 0.00 0.00 0.00 0.00 0.00 0.00 0.00 0.00 0.00 0.00 0.01 0.02 0.03 0.03 0.02 0.01 0.01 0.01 0.01 0.01 0.02 0.03 0.02 0.01 0.01 0.01 0.01 0.00 0.00 0.00 0.00 0.00 0.00 0.00 0.00 0.00 0.00 0.00 0.00 0.00 0.00 0.00 0.00 0.00 0.00 0.00 0.00 0.00 0.00 0.00 0.00 0.00 0.00 0.00 0.00 0.00 0.00 0.01 0.02 0.04 0.04 0.04 0.06 0.08 0.05 0.08 0.15 0.18 0.20 0.29
0.00 0.00 0.00 0.00 0.00 0.00 0.00 0.00 0.00 0.00 0.00 0.00 0.00 0.00 0.01 0.01 0.01 0.02 0.02 0.02 0.02 0.02 0.02 0.03 0.04 0.04 0.03 0.02 0.01 0.02 0.01 0.01 0.01 0.01 0.01 0.01 0.01 0.01 0.00 0.00 0.00 0.00 0.00 0.00 0.00 0.00 0.00 0.00 0.00 0.00 0.00 0.00 0.00 0.00 0.00 0.00 0.00 0.00 0.00 0.00 0.00 0.00 0.01 0.02 0.03 0.03 0.04 0.05 0.06 0.04 0.07 0.16 0.19 0.22
0.00 0.00 0.00 0.00 0.00 0.00 0.00 0.00 0.00 0.00 0.00 0.00 0.00 0.01 0.00 0.00 0.00 0.01 0.01 0.03 0.03 0.04 0.04 0.05 0.04 0.04 0.03 0.02 0.01 0.02 0.02 0.02 0.02 0.02 0.02 0.02 0.01 0.01 0.01 0.00 0.00 0.00 0.00 0.00 0.00 0.00 0.00 0.00 0.00 0.00 0.00 0.00 0.00 0.00 0.00 0.00 0.00 0.00 0.00 0.00 0.00 0.00 0.00 0.01 0.02 0.03 0.04 0.04 0.04 0.04 0.03 0.06 0.13 0.19
0.00 0.00 0.00 0.00 0.00 0.00 0.00 0.00 0.00 0.00 0.00 0.00 0.01 0.00 0.00 0.00 0.00 0.00 0.01 0.01 0.02 0.04 0.06 0.05 0.03 0.02 0.02 0.02 0.02 0.03 0.03 0.04 0.04 0.03 0.02 0.02 0.01 0.01 0.01 0.00 0.00 0.00 0.00 0.00 0.00 0.00 0.00 0.00 0.00 0.00 0.00 0.00 0.00 0.00 0.00 0.00 0.00 0.00 0.00 0.00 0.00 0.00 0.00 0.00 0.01 0.03 0.04 0.04 0.04 0.04 0.03 0.03 0.08 0.10
0.00 0.00 0.00 0.00 0.00 0.00 0.00 0.00 0.00 0.00 0.00 0.01 0.01 0.00 0.00 0.00 0.00 0.00 0.00 0.00 0.01 0.03 0.05 0.05 0.03 0.02 0.02 0.03 0.03 0.03 0.04 0.04 0.04 0.03 0.02 0.01 0.01 0.01 0.01 0.00 0.00 0.00 0.00 0.00 0.00 0.00 0.00 0.00 0.00 0.00 0.00 0.00 0.00 0.00 0.00 0.00 0.00 0.00 0.00 0.00 0.00 0.00 0.00 0.00 0.00 0.02 0.03 0.04 0.04 0.04 0.03 0.03 0.02 0.07
0.00 0.00 0.00 0.00 0.00 0.00 0.00 0.00 0.00 0.00 0.01 0.01 0.01 0.00 0.00 0.00 0.00 0.00 0.00 0.00 0.01 0.03 0.04 0.03 0.03 0.02 0.03 0.04 0.03 0.03 0.03 0.04 0.04 0.04 0.04 0.03 0.03 0.02 0.01 0.01 0.00 0.00 0.00 0.00 0.00 0.00 0.00 0.00 0.00 0.00 0.00 0.00 0.00 0.00 0.00 0.00 0.00 0.00 0.00 0.00 0.00 0.00 0.00 0.00 0.00 0.01 0.02 0.03 0.04 0.04 0.03 0.03 0.02 0.03
0.00 0.00 0.00 0.00 0.00 0.00 0.00 0.00 0.00 0.01 0.02 0.01 0.00 0.00 0.00 0.00 0.00 0.00 0.00 0.00 0.01 0.03 0.04 0.04 0.04 0.04 0.06 0.06 0.05 0.04 0.07 0.10 0.09 0.06 0.04 0.03 0.02 0.02 0.02 0.01 0.00 0.00 0.00 0.00 0.00 0.00 0.00 0.00 0.01 0.00 0.00 0.00 0.00 0.00 0.00 0.00 0.00 0.00 0.00 0.00 0.00 0.00 0.00 0.00 0.00 0.00 0.01 0.02 0.03 0.04 0.03 0.03 0.03 0.02
0.00 0.00 0.00 0.00 0.00 0.00 0.00 0.00 0.01 0.01 0.01 0.01 0.00 0.00 0.00 0.00 0.00 0.00 0.00 0.00 0.01 0.03 0.03 0.03 0.03 0.04 0.05 0.04 0.04 0.04 0.05 0.07 0.09 0.09 0.06 0.03 0.01 0.02 0.01 0.00 0.00 0.00 0.00 0.00 0.00 0.00 0.00 0.00 0.01 0.00 0.00 0.00 0.00 0.00 0.01 0.01 0.00 0.00 0.00 0.00 0.00 0.00 0.00 0.00 0.00 0.00 0.00 0.01 0.03 0.03 0.03 0.03 0.02 0.02
0.00 0.00 0.00 0.00 0.00 0.00 0.00 0.00 0.01 0.01 0.01 0.01 0.00 0.00 0.00 0.00 0.00 0.00 0.00 0.00 0.00 0.01 0.02 0.03 0.05 0.06 0.06 0.05 0.04 0.04 0.06 0.07 0.08 0.07 0.04 0.02 0.02 0.02 0.02 0.01 0.00 0.00 0.00 0.01 0.01 0.01 0.00 0.00 0.01 0.01 0.00 0.01 0.00 0.00 0.01 0.02 0.01 0.00 0.00 0.00 0.00 0.00 0.00 0.00 0.00 0.00 0.00 0.00 0.01 0.02 0.02 0.03 0.02 0.01
0.00 0.00 0.00 0.00 0.00 0.00 0.00 0.00 0.01 0.01 0.01 0.00 0.00 0.00 0.00 0.00 0.00 0.00 0.00 0.00 0.00 0.00 0.01 0.02 0.03 0.05 0.06 0.06 0.05 0.06 0.06 0.07 0.07 0.06 0.03 0.02 0.04 0.04 0.02 0.02 0.02 0.01 0.01 0.04 0.10 0.06 0.01 0.02 0.02 0.01 0.01 0.01 0.00 0.00 0.00 0.01 0.02 0.00 0.00 0.00 0.00 0.00 0.00 0.00 0.00 0.00 0.00 0.00 0.01 0.01 0.02 0.02 0.02 0.02
0.00 0.00 0.00 0.00 0.00 0.00 0.00 0.01 0.01 0.01 0.00 0.00 0.00 0.00 0.00 0.01 0.01 0.01 0.00 0.00 0.00 0.00 0.00 0.01 0.03 0.05 0.07 0.08 0.08 0.08 0.07 0.07 0.08 0.07 0.05 0.04 0.06 0.04 0.04 0.06 0.04 0.03 0.04 0.04 0.12 0.09 0.01 0.04 0.05 0.01 0.01 0.01 0.01 0.00 0.00 0.01 0.00 0.00 0.00 0.00 0.00 0.00 0.00 0.00 0.00 0.00 0.00 0.00 0.00 0.00 0.01 0.01 0.02 0.02
0.00 0.00 0.00 0.00 0.00 0.00 0.00 0.01 0.01 0.00 0.00 0.00 0.00 0.00 0.01 0.01 0.01 0.00 0.00 0.00 0.00 0.00 0.00 0.00 0.02 0.04 0.06 0.08 0.09 0.09 0.09 0.08 0.08 0.07 0.05 0.06 0.06 0.06 0.06 0.07 0.03 0.03 0.02 0.02 0.05 0.09 0.03 0.03 0.05 0.04 0.02 0.02 0.00 0.00 0.00 0.00 0.00 0.00 0.00 0.00 0.00 0.00 0.00 0.00 0.00 0.00 0.00 0.00 0.00 0.00 0.00 0.01 0.01 0.01
0.00 0.00 0.00 0.00 0.00 0.00 0.00 0.00 0.00 0.00 0.00 0.00 0.00 0.01 0.01 0.00 0.00 0.00 0.00 0.00 0.00 0.00 0.00 0.00 0.01 0.03 0.05 0.06 0.06 0.08 0.08 0.09 0.10 0.08 0.05 0.05 0.06 0.06 0.07 0.08 0.09 0.05 0.03 0.02 0.04 0.08 0.05 0.04 0.05 0.07 0.01 0.01 0.01 0.00 0.00 0.00 0.00 0.00 0.00 0.00 0.00 0.00 0.00 0.00 0.00 0.00 0.00 0.00 0.00 0.00 0.00 0.00 0.01 0.01
0.00 0.00 0.00 0.00 0.00 0.00 0.00 0.00 0.00 0.00 0.00 0.00 0.00 0.00 0.00 0.00 0.00 0.00 0.00 0.00 0.00 0.00 0.00 0.00 0.00 0.01 0.03 0.04 0.04 0.06 0.07 0.08 0.09 0.09 0.06 0.05 0.07 0.09 0.10 0.06 0.13 0.13 0.10 0.06 0.06 0.09 0.09 0.08 0.07 0.07 0.04 0.00 0.01 0.00 0.00 0.00 0.00 0.00 0.00 0.00 0.00 0.00 0.00 0.00 0.00 0.00 0.00 0.00 0.00 0.00 0.00 0.00 0.00 0.00
0.00 0.00 0.00 0.00 0.00 0.00 0.00 0.00 0.00 0.00 0.00 0.00 0.00 0.00 0.00 0.00 0.00 0.00 0.00 0.00 0.00 0.00 0.00 0.00 0.00 0.00 0.01 0.02 0.03 0.05 0.08 0.13 0.12 0.08 0.05 0.04 0.05 0.09 0.09 0.08 0.07 0.10 0.10 0.10 0.11 0.11 0.11 0.11 0.06 0.02 0.02 0.01 0.00 0.01 0.00 0.00 0.00 0.00 0.00 0.00 0.00 0.00 0.00 0.00 0.00 0.00 0.00 0.00 0.00 0.00 0.00 0.01 0.00 0.00
0.00 0.00 0.00 0.00 0.00 0.00 0.00 0.00 0.00 0.00 0.00 0.00 0.00 0.00 0.00 0.00 0.00 0.00 0.00 0.00 0.00 0.00 0.00 0.00 0.00 0.00 0.00 0.01 0.02 0.04 0.06 0.10 0.13 0.11 0.07 0.04 0.05 0.06 0.09 0.09 0.09 0.08 0.05 0.06 0.11 0.14 0.09 0.07 0.08 0.05 0.01 0.01 0.01 0.01 0.00 0.00 0.00 0.00 0.00 0.00 0.00 0.00 0.00 0.00 0.00 0.00 0.00 0.00 0.00 0.00 0.00 0.00 0.00 0.00
0.00 0.00 0.00 0.00 0.00 0.00 0.00 0.00 0.00 0.00 0.00 0.00 0.00 0.00 0.00 0.00 0.00 0.00 0.00 0.00 0.00 0.00 0.00 0.00 0.00 0.00 0.00 0.00 0.00 0.02 0.04 0.06 0.08 0.11 0.09 0.06 0.05 0.05 0.05 0.06 0.06 0.06 0.04 0.04 0.05 0.09 0.08 0.05 0.05 0.07 0.03 0.01 0.01 0.02 0.01 0.00 0.00 0.00 0.00 0.00 0.00 0.00 0.00 0.00 0.00 0.00 0.00 0.00 0.00 0.00 0.00 0.00 0.00 0.00
0.00 0.00 0.00 0.00 0.00 0.00 0.00 0.00 0.00 0.00 0.00 0.00 0.00 0.00 0.00 0.00 0.00 0.00 0.00 0.00 0.00 0.00 0.00 0.00 0.00 0.00 0.00 0.00 0.00 0.00 0.02 0.04 0.05 0.08 0.10 0.08 0.06 0.05 0.04 0.03 0.03 0.02 0.03 0.04 0.04 0.05 0.06 0.04 0.03 0.04 0.04 0.01 0.01 0.01 0.01 0.00 0.00 0.00 0.00 0.00 0.00 0.00 0.00 0.00 0.00 0.00 0.00 0.00 0.00 0.00 0.00 0.00 0.00 0.00
0.00 0.00 0.00 0.00 0.00 0.00 0.00 0.00 0.00 0.00 0.00 0.00 0.00 0.00 0.00 0.00 0.00 0.00 0.00 0.00 0.00 0.00 0.00 0.00 0.00 0.00 0.00 0.00 0.00 0.00 0.00 0.02 0.03 0.05 0.07 0.09 0.09 0.07 0.05 0.03 0.02 0.01 0.01 0.01 0.02 0.02 0.01 0.04 0.03 0.04 0.03 0.01 0.01 0.00 0.00 0.01 0.01 0.01 0.00 0.00 0.00 0.00 0.00 0.00 0.00 0.01 0.00 0.00 0.00 0.00 0.00 0.01 0.01 0.01
0.00 0.00 0.00 0.00 0.00 0.00 0.00 0.00 0.00 0.00 0.00 0.00 0.00 0.00 0.00 0.00 0.00 0.00 0.00 0.00 0.00 0.00 0.00 0.00 0.00 0.00 0.00 0.00 0.00 0.00 0.00 0.00 0.01 0.03 0.04 0.06 0.08 0.07 0.06 0.05 0.03 0.02 0.02 0.02 0.02 0.02 0.02 0.01 0.01 0.04 0.06 0.03 0.02 0.02 0.01 0.01 0.01 0.01 0.02 0.03 0.03 0.03 0.02 0.01 0.01 0.01 0.01 0.01 0.00 0.00 0.00 0.01 0.01 0.01
0.00 0.00 0.00 0.00 0.00 0.00 0.00 0.00 0.00 0.00 0.00 0.00 0.00 0.00 0.00 0.00 0.00 0.00 0.00 0.00 0.00 0.00 0.00 0.00 0.00 0.00 0.00 0.00 0.00 0.00 0.00 0.00 0.00 0.01 0.03 0.04 0.05 0.06 0.06 0.06 0.05 0.03 0.02 0.03 0.03 0.03 0.03 0.02 0.01 0.02 0.04 0.05 0.03 0.03 0.03 0.02 0.01 0.01 0.01 0.01 0.02 0.02 0.03 0.03 0.03 0.03 0.03 0.02 0.01 0.01 0.01 0.01 0.01 0.01
0.00 0.00 0.00 0.00 0.00 0.00 0.00 0.00 0.00 0.00 0.00 0.00 0.00 0.00 0.00 0.00 0.00 0.00 0.00 0.00 0.00 0.00 0.00 0.00 0.00 0.00 0.00 0.00 0.00 0.00 0.00 0.00 0.00 0.00 0.01 0.02 0.04 0.04 0.05 0.05 0.05 0.03 0.03 0.03 0.04 0.04 0.04 0.03 0.02 0.02 0.02 0.04 0.04 0.04 0.02 0.02 0.02 0.02 0.01 0.01 0.01 0.01 0.01 0.01 0.03 0.04 0.03 0.03 0.03 0.02 0.01 0.01 0.00 0.00
0.00 0.00 0.00 0.00 0.00 0.00 0.00 0.00 0.00 0.00 0.00 0.00 0.00 0.00 0.00 0.00 0.00 0.00 0.00 0.00 0.00 0.00 0.00 0.00 0.00 0.00 0.00 0.00 0.00 0.00 0.00 0.00 0.00 0.00 0.00 0.01 0.02 0.03 0.03 0.04 0.04 0.04 0.03 0.03 0.03 0.04 0.04 0.05 0.03 0.03 0.03 0.03 0.02 0.03 0.03 0.02 0.02 0.02 0.02 0.02 0.02 0.01 0.01 0.01 0.02 0.02 0.03 0.03 0.04 0.03 0.03 0.02 0.01 0.01
0.00 0.00 0.00 0.00 0.00 0.00 0.00 0.00 0.00 0.00 0.00 0.00 0.00 0.00 0.00 0.00 0.00 0.00 0.00 0.00 0.00 0.00 0.00 0.00 0.00 0.00 0.00 0.00 0.00 0.00 0.00 0.00 0.00 0.00 0.00 0.00 0.00 0.01 0.02 0.02 0.03 0.03 0.04 0.03 0.03 0.04 0.04 0.05 0.05 0.04 0.03 0.02 0.03 0.04 0.05 0.02 0.02 0.02 0.03 0.03 0.03 0.02 0.02 0.02 0.02 0.02 0.02 0.03 0.03 0.03 0.02 0.01 0.01 0.01
0.00 0.00 0.00 0.00 0.00 0.00 0.00 0.00 0.00 0.00 0.00 0.00 0.00 0.00 0.00 0.00 0.00 0.00 0.00 0.00 0.00 0.00 0.00 0.00 0.00 0.00 0.00 0.00 0.00 0.00 0.00 0.00 0.00 0.00 0.00 0.00 0.00 0.00 0.00 0.01 0.02 0.02 0.02 0.03 0.03 0.03 0.04 0.04 0.05 0.05 0.04 0.04 0.03 0.02 0.03 0.03 0.03 0.03 0.02 0.03 0.04 0.04 0.03 0.02 0.03 0.04 0.05 0.04 0.04 0.04 0.03 0.02 0.01 0.01
0.00 0.00 0.00 0.00 0.00 0.00 0.00 0.00 0.00 0.00 0.00 0.00 0.00 0.00 0.00 0.00 0.00 0.00 0.00 0.00 0.00 0.00 0.00 0.00 0.00 0.00 0.00 0.00 0.00 0.00 0.00 0.00 0.00 0.00 0.00 0.00 0.00 0.00 0.00 0.00 0.00 0.01 0.01 0.02 0.02 0.02 0.03 0.04 0.04 0.04 0.04 0.05 0.05 0.04 0.03 0.03 0.03 0.04 0.04 0.04 0.04 0.04 0.04 0.04 0.03 0.03 0.04 0.06 0.06 0.06 0.05 0.05 0.03 0.02
0.00 0.00 0.00 0.00 0.00 0.00 0.00 0.00 0.00 0.00 0.00 0.00 0.00 0.00 0.00 0.00 0.00 0.00 0.00 0.00 0.00 0.00 0.00 0.00 0.00 0.00 0.00 0.00 0.00 0.00 0.00 0.00 0.00 0.00 0.00 0.00 0.00 0.00 0.00 0.00 0.00 0.00 0.00 0.01 0.01 0.01 0.02 0.02 0.03 0.04 0.04 0.04 0.05 0.05 0.04 0.03 0.04 0.04 0.05 0.05 0.04 0.04 0.06 0.06 0.05 0.04 0.04 0.05 0.07 0.07 0.06 0.06 0.06 0.05
0.00 0.00 0.00 0.00 0.00 0.00 0.00 0.00 0.00 0.00 0.00 0.00 0.00 0.00 0.00 0.00 0.00 0.00 0.00 0.00 0.00 0.00 0.00 0.00 0.00 0.00 0.00 0.00 0.00 0.00 0.00 0.00 0.00 0.00 0.00 0.00 0.00 0.00 0.00 0.00 0.00 0.00 0.00 0.00 0.00 0.01 0.01 0.01 0.01 0.02 0.02 0.03 0.03 0.05 0.05 0.04 0.03 0.04 0.04 0.05 0.05 0.04 0.05 0.07 0.08 0.08 0.08 0.09 0.08 0.08 0.09 0.07 0.06 0.06
0.00 0.00 0.00 0.00 0.00 0.00 0.00 0.00 0.00 0.00 0.00 0.00 0.00 0.00 0.00 0.00 0.00 0.00 0.00 0.00 0.00 0.00 0.00 0.00 0.00 0.00 0.00 0.00 0.00 0.00 0.00 0.00 0.00 0.00 0.00 0.00 0.00 0.00 0.00 0.00 0.00 0.00 0.00 0.00 0.00 0.00 0.00 0.00 0.00 0.01 0.01 0.02 0.03 0.04 0.05 0.05 0.05 0.04 0.05 0.05 0.05 0.05 0.05 0.06 0.06 0.07 0.10 0.10 0.08 0.09 0.09 0.09 0.09 0.08
0.00 0.00 0.00 0.00 0.00 0.00 0.00 0.00 0.00 0.00 0.00 0.00 0.00 0.00 0.00 0.00 0.00 0.00 0.00 0.00 0.00 0.00 0.00 0.00 0.00 0.00 0.00 0.00 0.00 0.00 0.00 0.00 0.00 0.00 0.00 0.00 0.00 0.00 0.00 0.00 0.00 0.00 0.00 0.00 0.00 0.00 0.00 0.00 0.00 0.00 0.00 0.01 0.02 0.02 0.03 0.04 0.04 0.05 0.05 0.05 0.05 0.06 0.06 0.06 0.06 0.05 0.05 0.07 0.07 0.09 0.11 0.11 0.09 0.07
0.00 0.00 0.00 0.00 0.00 0.00 0.00 0.00 0.00 0.00 0.00 0.00 0.00 0.00 0.00 0.00 0.00 0.00 0.00 0.00 0.00 0.00 0.00 0.00 0.00 0.00 0.00 0.00 0.00 0.00 0.00 0.00 0.00 0.00 0.00 0.00 0.00 0.00 0.00 0.00 0.00 0.00 0.00 0.00 0.00 0.00 0.00 0.00 0.00 0.00 0.00 0.00 0.01 0.01 0.02 0.02 0.03 0.03 0.04 0.05 0.05 0.06 0.06 0.06 0.06 0.06 0.06 0.06 0.06 0.05 0.05 0.07 0.08 0.07
0.00 0.00 0.00 0.00 0.00 0.00 0.00 0.00 0.00 0.00 0.00 0.00 0.00 0.00 0.00 0.00 0.00 0.00 0.00 0.00 0.00 0.00 0.00 0.00 0.00 0.00 0.00 0.00 0.00 0.00 0.00 0.00 0.00 0.00 0.00 0.00 0.00 0.00 0.00 0.00 0.00 0.00 0.00 0.00 0.00 0.00 0.00 0.00 0.00 0.00 0.00 0.00 0.00 0.00 0.01 0.01 0.01 0.02 0.02 0.03 0.04 0.05 0.06 0.06 0.06 0.07 0.07 0.08 0.07 0.06 0.06 0.05 0.05 0.05
MSLP
1015.60 1015.40 1015.24 1015.12 1014.92 1014.84 1014.84 1014.76 1014.60 1014.32 1014.04 1013.88 1013.76 1013.68 1013.72 1013.52 1013.52 1012.12 1010.52 1008.84 1009.92 1008.28 1009.08 1008.72 1007.76 1008.08 1007.72 1007.40 1007.08 1006.80 1006.48 1006.12 1005.80 1005.40 1005.00 1004.68 1004.36 1004.00 1003.64 1003.24 1002.88 1002.48 1002.12 1001.80 1001.44 1001.04 1000.80 1000.60 1000.48 1000.32 1000.12 999.84 999.56 999.28 999.04 998.80 998.60 998.52 998.48 998.44 998.40 998.24 998.08 998.00 997.80 997.72 997.84 997.88 997.96 998.20 998.24 997.88 997.92 998.40
1015.32 1015.08 1014.96 1014.84 1014.80 1014.76 1014.68 1014.48 1014.24 1014.04 1013.88 1013.72 1013.64 1013.56 1013.44 1013.36 1013.20 1012.60 1012.04 1008.92 1009.60 1008.92 1008.56 1008.76 1008.04 1007.60 1007.44 1007.16 1006.68 1006.44 1006.00 1005.76 1005.48 1005.12 1004.76 1004.36 1004.04 1003.64 1003.24 1002.88 1002.56 1002.24 1001.92 1001.56 1001.20 1000.80 1000.44 1000.20 1000.04 999.92 999.80 999.64 999.40 999.12 998.84 998.64 998.36 998.20 998.08 998.04 997.92 997.84 997.72 997.64 997.72 997.72 997.80 997.88 997.96 998.08 998.24 998.20 997.64 997.40
1015.12 1014.96 1014.80 1014.72 1014.64 1014.52 1014.36 1014.20 1014.04 1013.92 1013.76 1013.64 1013.48 1013.24 1013.16 1012.96 1012.80 1012.60 1012.04 1010.72 1008.08 1009.96 1008.56 1008.04 1008.12 1007.60 1007.08 1006.84 1006.36 1005.92 1005.64 1005.32 1005.08 1004.72 1004.36 1003.96 1003.64 1003.28 1002.88 1002.56 1002.28 1001.96 1001.64 1001.28 1000.92 1000.52 1000.12 999.84 999.64 999.48 999.36 999.24 999.12 998.92 998.68 998.48 998.32 998.12 997.92 997.76 997.52 997.36 997.28 997.32 997.40 997.56 997.64 997.72 997.92 998.04 998.16 998.24 998.04 997.48
1014.96 1014.84 1014.68 1014.56 1014.44 1014.28 1014.16 1014.04 1013.92 1013.76 1013.60 1013.48 1013.32 1013.08 1012.92 1012.68 1012.60 1012.40 1011.88 1011.28 1009.00 1009.24 1008.96 1008.04 1007.48 1007.48 1006.88 1006.48 1006.08 1005.40 1005.00 1004.68 1004.52 1004.24 1003.88 1003.52 1003.16 1002.88 1002.56 1002.28 1001.96 1001.68 1001.36 1001.00 1000.68 1000.32 999.88 999.56 999.36 999.20 999.04 998.88 998.76 998.64 998.48 998.28 998.16 998.00 997.80 997.56 997.36 997.08 997.00 997.04 997.16 997.28 997.36 997.44 997.68 997.92 998.00 998.08 997.92 997.56
1014.80 1014.64 1014.48 1014.36 1014.20 1014.04 1013.96 1013.84 1013.72 1013.64 1013.56 1013.48 1013.32 1013.04 1012.80 1012.56 1012.32 1012.12 1011.72 1011.04 1009.36 1008.40 1008.80 1008.00 1007.28 1006.76 1006.60 1005.84 1005.80 1005.12 1004.56 1004.12 1003.88 1003.68 1003.44 1003.16 1002.92 1002.60 1002.32 1002.00 1001.76 1001.48 1001.12 1000.76 1000.40 1000.04 999.68 999.28 999.00 998.84 998.68 998.56 998.44 998.28 998.16 998.04 997.92 997.76 997.60 997.44 997.20 996.92 996.76 996.76 996.84 997.00 997.12 997.28 997.40 997.64 997.76 997.76 997.72 997.64
1014.60 1014.36 1014.20 1014.04 1013.88 1013.76 1013.72 1013.64 1013.64 1013.64 1013.60 1013.52 1013.32 1012.96 1012.72 1012.40 1012.16 1011.92 1011.56 1010.80 1010.12 1008.32 1007.88 1007.64 1006.92 1006.40 1006.32 1005.48 1005.32 1004.96 1004.24 1003.80 1003.52 1003.20 1003.04 1002.88 1002.76 1002.40 1002.04 1001.76 1001.40 1001.16 1000.80 1000.48 1000.12 999.72 999.36 998.96 998.60 998.44 998.32 998.20 998.08 997.96 997.84 997.68 997.56 997.48 997.36 997.24 997.04 996.80 996.60 996.52 996.56 996.60 996.84 996.92 997.12 997.36 997.56 997.68 997.76 997.84
1014.36 1014.16 1013.88 1013.68 1013.60 1013.56 1013.52 1013.52 1013.56 1013.60 1013.60 1013.48 1013.20 1012.88 1012.64 1012.40 1012.12 1011.76 1011.44 1010.96 1009.96 1008.88 1007.32 1007.24 1006.40 1006.08 1005.52 1005.36 1004.68 1004.56 1004.12 1003.52 1003.24 1002.92 1002.68 1002.60 1002.28 1002.00 1001.64 1001.24 1000.92 1000.68 1000.36 1000.04 999.72 999.36 999.00 998.64 998.28 998.04 997.92 997.80 997.68 997.60 997.52 997.36 997.16 997.08 997.04 997.00 996.84 996.68 996.56 996.48 996.28 996.24 996.40 996.56 996.72 997.04 997.40 997.64 997.64 997.56
1014.12 1013.84 1013.60 1013.40 1013.32 1013.32 1013.36 1013.40 1013.48 1013.52 1013.52 1013.40 1013.20 1012.92 1012.64 1012.36 1012.00 1011.52 1011.00 1010.40 1009.68 1008.44 1007.44 1006.52 1006.68 1005.48 1005.20 1004.56 1004.48 1004.28 1003.84 1003.48 1003.04 1002.80 1002.28 1002.08 1001.76 1001.44 1001.12 1000.76 1000.44 1000.20 999.92 999.56 999.24 998.96 998.64 998.32 997.96 997.68 997.56 997.44 997.32 997.28 997.20 997.12 996.92 996.80 996.72 996.76 996.68 996.52 996.44 996.36 996.16 996.00 996.04 996.16 996.44 996.80 997.12 997.28 997.28 997.16
1013.72 1013.44 1013.20 1013.08 1013.08 1013.08 1013.20 1013.24 1013.32 1013.36 1013.40 1013.28 1013.12 1012.84 1012.48 1012.08 1011.48 1010.92 1010.36 1009.64 1009.16 1008.44 1007.56 1006.08 1005.64 1005.40 1004.84 1004.56 1004.24 1004.16 1003.84 1003.20 1002.76 1002.32 1002.00 1001.56 1001.20 1000.88 1000.64 1000.40 1000.12 999.88 999.56 999.24 998.92 998.60 998.28 998.00 997.68 997.36 997.16 997.04 996.92 996.88 996.80 996.72 996.64 996.52 996.48 996.48 996.48 996.32 996.20 996.12 996.00 995.88 995.84 995.92 996.20 996.64 997.04 997.08 997.04 997.08
1013.20 1013.00 1012.88 1012.80 1012.80 1012.84 1012.96 1013.00 1013.08 1013.12 1013.16 1013.04 1012.84 1012.52 1012.08 1011.56 1011.00 1010.36 1009.76 1009.16 1008.52 1007.92 1007.12 1006.52 1005.32 1005.12 1005.08 1004.36 1004.20 1003.88 1003.72 1003.16 1002.44 1001.88 1001.48 1001.16 1000.92 1000.68 1000.28 1000.04 999.76 999.52 999.20 998.92 998.60 998.32 998.00 997.68 997.36 997.00 996.68 996.52 996.40 996.36 996.32 996.32 996.24 996.12 996.08 996.16 996.16 996.08 996.00 995.92 995.88 995.84 995.80 995.92 996.16 996.60 997.04 997.08 997.04 997.08
1012.68 1012.56 1012.52 1012.48 1012.56 1012.60 1012.64 1012.76 1012.84 1012.84 1012.76 1012.60 1012.28 1011.88 1011.44 1011.00 1010.48 1009.80 1009.12 1008.48 1007.96 1007.48 1006.96 1006.44 1006.20 1005.40 1004.84 1004.84 1003.96 1003.52 1003.48 1003.12 1002.76 1002.20 1001.44 1000.84 1000.52 1000.28 1000.00 999.60 999.44 999.32 999.00 998.68 998.36 998.00 997.72 997.36 997.04 996.68 996.28 996.04 995.92 995.80 995.84 995.84 995.84 995.76 995.72 995.68 995.72 995.72 995.76 995.80 995.84 995.84 995.92 996.00 996.24 996.56 996.88 997.04 996.96 996.96
1012.24 1012.20 1012.16 1012.20 1012.28 1012.32 1012.36 1012.44 1012.44 1012.44 1012.28 1011.96 1011.64 1011.28 1010.92 1010.44 1009.92 1009.28 1008.60 1007.96 1007.56 1007.44 1007.24 1006.84 1006.08 1005.60 1005.04 1004.36 1004.08 1003.64 1003.36 1003.00 1002.48 1002.16 1001.56 1000.80 1000.32 1000.24 1000.04 999.84 999.60 999.28 999.20 998.80 998.44 998.16 997.80 997.36 996.92 996.40 995.88 995.44 995.32 995.36 995.32 995.32 995.40 995.44 995.40 995.28 995.28 995.36 995.48 995.60 995.72 995.88 996.04 996.08 996.20 996.44 996.88 996.96 996.92 996.88
1011.92 1011.88 1011.88 1011.92 1012.00 1012.00 1011.88 1011.68 1011.56 1011.52 1011.48 1011.40 1011.24 1010.84 1010.48 1009.96 1009.44 1008.76 1008.08 1007.84 1007.72 1007.48 1007.24 1006.56 1006.08 1005.48 1004.88 1004.48 1004.16 1003.72 1003.52 1003.20 1002.64 1002.12 1001.96 1001.32 1000.88 1000.56 1000.00 999.44 999.48 999.24 998.96 998.48 998.16 997.68 997.52 997.08 996.52 996.12 995.64 995.08 994.88 994.84 994.92 994.92 994.96 995.04 995.08 995.00 994.92 995.04 995.16 995.32 995.52 995.76 996.04 996.16 996.24 996.40 996.64 996.84 996.80 996.80
1011.64 1011.60 1011.64 1011.72 1011.64 1011.60 1011.48 1011.52 1011.60 1011.52 1011.36 1011.12 1010.88 1010.40 1009.96 1009.48 1008.96 1008.40 1008.04 1007.84 1007.76 1007.56 1007.08 1006.48 1005.96 1005.44 1004.80 1004.48 1004.28 1003.88 1003.36 1003.12 1002.80 1002.56 1002.20 1001.64 1000.76 1000.48 999.92 999.20 999.00 999.04 998.84 998.36 997.92 997.36 997.12 996.76 996.08 995.64 995.12 994.56 994.48 994.28 994.36 994.24 994.32 994.40 994.52 994.60 994.64 994.76 994.88 995.08 995.28 995.48 995.80 996.08 996.24 996.32 996.44 996.60 996.68 996.76
1011.40 1011.44 1011.48 1011.56 1011.56 1011.52 1011.56 1011.60 1011.52 1011.40 1011.28 1011.04 1010.56 1010.00 1009.48 1009.04 1008.64 1008.32 1008.12 1007.88 1007.68 1007.32 1006.76 1006.24 1006.00 1005.56 1004.84 1004.40 1004.32 1003.96 1003.52 1003.28 1003.08 1002.64 1002.24 1001.64 1001.08 1000.84 1000.52 999.52 998.20 998.64 998.60 998.20 997.60 996.84 996.48 996.20 995.68 995.16 994.60 994.12 993.92 993.64 993.48 993.52 993.64 993.80 993.92 994.12 994.36 994.48 994.60 994.80 995.04 995.28 995.52 995.80 996.04 996.16 996.24 996.36 996.52 996.64
1011.20 1011.24 1011.32 1011.40 1011.44 1011.48 1011.48 1011.44 1011.56 1011.52 1011.28 1010.84 1010.24 1009.60 1009.04 1008.64 1008.44 1008.36 1008.20 1007.80 1007.40 1007.12 1006.72 1006.20 1005.92 1005.64 1005.08 1004.44 1004.24 1003.92 1003.80 1003.40 1003.00 1002.60 1002.32 1001.88 1001.48 1000.88 1000.40 999.68 999.04 998.20 998.64 998.28 997.88 997.04 996.52 996.04 995.28 994.48 993.84 993.60 993.20 992.88 992.80 992.84 993.04 993.24 993.36 993.52 993.80 994.12 994.32 994.52 994.76 995.00 995.24 995.48 995.72 995.92 996.04 996.12 996.24 996.48
1011.00 1011.12 1011.20 1011.28 1011.32 1011.32 1011.28 1011.40 1011.52 1011.52 1011.20 1010.56 1009.88 1009.24 1008.80 1008.60 1008.52 1008.28 1007.96 1007.80 1007.56 1007.12 1006.72 1006.24 1005.60 1005.52 1005.04 1004.56 1004.08 1004.04 1003.76 1003.40 1002.88 1002.32 1002.00 1001.60 1001.16 1000.56 999.92 999.16 998.68 998.04 998.64 998.24 997.56 996.88 996.08 995.88 995.16 994.52 993.52 993.00 992.52 992.20 992.12 992.20 992.40 992.56 992.76 992.92 993.20 993.52 993.80 994.12 994.36 994.60 994.84 995.08 995.28 995.52 995.68 995.84 996.04 996.28
1010.92 1011.04 1011.12 1011.24 1011.24 1011.28 1011.36 1011.40 1011.40 1011.32 1010.88 1010.24 1009.48 1008.96 1008.84 1008.68 1008.36 1008.12 1008.00 1007.72 1007.36 1007.00 1006.56 1006.08 1005.52 1005.00 1005.16 1004.40 1003.68 1003.36 1003.16 1002.72 1002.20 1001.80 1001.16 1000.80 1000.36 999.80 999.08 998.52 998.16 997.68 998.04 998.04 997.68 996.76 995.68 995.56 995.16 994.28 993.44 992.96 992.08 991.64 991.60 991.64 991.76 991.96 992.20 992.40 992.64 992.92 993.24 993.60 993.92 994.16 994.40 994.60 994.84 995.04 995.24 995.48 995.68 995.96
1010.92 1011.00 1011.08 1011.08 1011.08 1011.16 1011.28 1011.32 1011.16 1010.80 1010.28 1009.56 1009.08 1009.04 1008.84 1008.64 1008.36 1008.20 1007.96 1007.56 1007.08 1006.52 1006.16 1005.80 1005.32 1004.72 1004.32 1003.76 1003.04 1002.48 1002.08 1001.68 1001.12 1000.76 1000.28 999.92 999.52 998.96 998.36 997.92 997.56 997.24 997.44 997.60 997.76 997.00 995.28 995.24 994.96 993.84 993.16 992.68 991.88 991.24 991.12 991.12 991.24 991.44 991.64 991.84 992.08 992.40 992.72 993.08 993.40 993.68 993.96 994.16 994.40 994.60 994.84 995.08 995.32 995.56
1010.88 1010.96 1010.96 1011.00 1011.00 1011.12 1011.20 1011.12 1010.76 1010.36 1009.64 1009.12 1009.16 1009.12 1008.80 1008.48 1008.20 1007.84 1007.52 1007.00 1006.48 1006.16 1005.80 1005.40 1004.96 1004.36 1003.76 1003.04 1002.40 1001.88 1001.48 1001.04 1000.64 1000.20 999.68 999.40 999.08 998.84 998.40 997.64 997.04 996.84 996.56 996.84 996.72 996.08 995.20 994.52 994.56 993.52 992.88 992.52 991.72 990.88 990.76 990.64 990.76 990.92 991.12 991.36 991.60 991.88 992.20 992.52 992.88 993.16 993.44 993.72 993.96 994.20 994.48 994.76 995.00 995.24
1010.80 1010.88 1010.88 1010.88 1010.88 1011.00 1011.08 1010.92 1010.48 1009.80 1009.24 1009.12 1009.12 1009.04 1008.72 1008.52 1008.40 1007.72 1006.80 1006.32 1006.16 1005.88 1005.52 1005.16 1004.68 1004.12 1003.52 1002.92 1002.32 1001.84 1001.40 1000.92 1000.36 999.96 999.56 999.08 998.80 998.56 998.04 997.16 996.96 996.20 996.08 995.88 995.76 995.48 994.56 993.28 993.68 993.16 992.32 992.00 991.36 990.44 990.20 990.12 990.12 990.36 990.60 990.88 991.16 991.44 991.72 992.00 992.32 992.64 992.92 993.20 993.52 993.80 994.16 994.52 994.80 995.12
1010.76 1010.84 1010.76 1010.68 1010.72 1010.80 1010.88 1010.60 1010.04 1009.48 1009.16 1009.08 1009.04 1008.92 1008.76 1008.64 1008.36 1007.60 1006.68 1005.96 1005.52 1005.68 1005.68 1005.36 1004.84 1004.32 1003.64 1003.04 1002.56 1002.04 1001.40 1000.76 1000.32 1000.24 999.92 999.36 999.24 998.84 998.32 997.64 996.96 996.16 995.56 994.52 994.40 994.68 993.24 992.56 992.72 992.36 991.52 991.12 990.44 989.88 989.68 989.68 989.72 989.80 990.12 990.44 990.76 991.08 991.32 991.56 991.84 992.12 992.44 992.72 993.04 993.40 993.80 994.24 994.68 995.12
1010.72 1010.80 1010.84 1010.68 1010.56 1010.56 1010.48 1010.16 1009.80 1009.36 1009.12 1009.04 1008.96 1009.00 1009.04 1008.80 1008.24 1007.32 1006.64 1006.56 1006.36 1005.76 1005.24 1004.76 1004.56 1004.08 1003.56 1003.12 1002.68 1002.04 1001.36 1000.76 1000.32 1000.12 999.76 999.32 999.08 998.60 998.12 997.68 997.12 996.16 994.24 992.88 993.00 993.44 992.44 992.44 991.52 991.52 990.96 990.28 989.40 989.20 989.32 989.44 989.52 989.68 989.96 990.24 990.56 990.72 990.96 991.20 991.40 991.68 992.00 992.32 992.68 993.08 993.48 993.92 994.44 994.92
1010.76 1010.84 1010.84 1010.76 1010.72 1010.60 1010.40 1010.04 1009.60 1009.28 1009.08 1008.96 1009.00 1009.16 1009.16 1008.56 1007.60 1007.00 1006.92 1007.04 1006.92 1006.40 1006.04 1005.32 1004.72 1004.12 1003.48 1003.00 1002.44 1001.88 1001.24 1000.64 1000.16 999.68 999.36 999.00 998.64 998.28 997.92 997.44 997.08 996.28 994.56 992.72 992.80 992.84 991.80 991.20 990.56 990.20 989.96 988.92 988.96 989.04 989.24 989.36 989.44 989.56 989.80 990.16 990.40 990.60 990.76 990.96 991.20 991.40 991.72 992.04 992.36 992.72 993.12 993.64 994.08 994.56
1010.72 1010.84 1010.88 1010.96 1010.88 1010.64 1010.28 1009.84 1009.48 1009.24 1009.04 1008.96 1009.20 1009.24 1008.68 1007.96 1007.48 1007.32 1007.48 1007.20 1006.92 1006.64 1006.00 1005.28 1004.60 1003.88 1003.28 1002.80 1002.32 1001.72 1001.04 1000.40 999.84 999.32 998.88 998.52 998.12 997.84 997.52 997.12 996.52 995.80 994.48 993.32 992.88 992.88 992.08 990.44 989.48 988.92 988.96 988.48 988.32 988.64 989.20 989.40 989.64 989.60 989.76 989.88 990.24 990.56 990.72 990.88 991.04 991.24 991.48 991.76 992.08 992.40 992.84 993.28 993.68 993.92
1010.68 1010.80 1010.88 1011.04 1010.88 1010.48 1010.04 1009.64 1009.44 1009.20 1009.12 1009.08 1009.20 1008.72 1008.12 1007.88 1007.80 1007.84 1007.96 1007.72 1007.24 1006.76 1006.12 1005.36 1004.68 1003.96 1003.24 1002.56 1001.92 1001.36 1000.88 1000.36 999.72 999.12 998.52 998.00 997.44 997.04 996.68 996.36 996.04 995.24 993.76 992.96 992.92 992.80 992.32 990.96 989.08 987.92 987.92 987.96 988.20 988.32 988.84 989.36 989.56 989.64 989.68 989.80 990.00 990.36 990.56 990.76 990.96 991.16 991.36 991.64 992.00 992.28 992.56 992.92 993.24 993.40
1010.64 1010.80 1010.96 1011.00 1010.72 1010.20 1009.72 1009.60 1009.44 1009.32 1009.24 1009.32 1008.96 1008.40 1008.24 1008.16 1008.16 1008.24 1008.20 1007.76 1007.44 1007.00 1006.36 1005.72 1005.12 1004.40 1003.72 1002.96 1002.20 1001.56 1000.88 1000.20 999.64 999.00 998.28 997.56 996.88 996.20 995.64 995.20 995.00 994.52 993.60 993.08 992.68 992.44 992.16 990.96 989.32 988.40 987.36 987.32 987.80 988.24 988.48 988.92 989.40 989.64 989.76 989.84 989.92 990.08 990.36 990.52 990.72 990.92 991.20 991.44 991.72 992.04 992.40 992.68 992.96 993.16
1010.56 1010.76 1010.96 1010.80 1010.20 1009.80 1009.72 1009.60 1009.52 1009.52 1009.52 1009.24 1008.84 1008.72 1008.56 1008.56 1008.68 1008.64 1008.32 1007.96 1007.68 1007.32 1006.76 1006.08 1005.52 1004.92 1004.28 1003.68 1002.88 1002.12 1001.52 1000.84 1000.00 999.16 998.32 997.36 996.52 995.84 995.20 994.68 994.24 993.84 993.56 993.20 992.80 992.32 991.80 991.12 989.92 989.24 988.92 987.64 987.40 988.04 988.52 988.64 988.92 989.28 989.68 989.88 989.92 989.96 990.08 990.28 990.60 990.84 991.08 991.36 991.68 991.92 992.28 992.52 992.72 993.00
1010.56 1010.56 1010.24 1009.92 1009.88 1009.88 1009.80 1009.72 1009.76 1009.84 1009.76 1009.28 1009.12 1009.00 1008.96 1009.04 1009.08 1008.84 1008.56 1008.24 1007.92 1007.52 1007.08 1006.68 1006.16 1005.52 1005.00 1004.44 1003.72 1002.80 1001.76 1001.00 1000.24 999.28 998.36 997.60 996.76 996.08 995.36 994.64 994.04 993.60 993.40 993.04 992.60 992.04 991.44 990.84 990.16 989.68 989.00 988.08 987.40 987.60 987.84 988.48 988.80 989.20 989.52 989.80 990.04 990.00 990.04 990.08 990.32 990.68 990.96 991.20 991.48 991.68 991.76 992.04 992.28 992.52
1010.00 1010.04 1010.00 1010.00 1010.08 1010.12 1010.04 1010.00 1010.04 1010.04 1009.92 1009.60 1009.52 1009.44 1009.40 1009.40 1009.24 1009.08 1008.76 1008.44 1008.24 1008.04 1007.68 1007.20 1006.60 1006.00 1005.24 1004.44 1003.72 1002.96 1002.00 1001.08 1000.32 999.60 998.76 997.76 996.80 996.04 995.40 994.64 994.20 993.68 993.24 992.80 992.28 991.68 991.08 990.56 990.20 989.88 989.16 988.36 988.04 987.92 987.76 988.04 988.72 989.00 989.32 989.56 989.76 990.08 990.12 990.04 990.16 990.44 990.72 990.96 991.20 991.44 991.60 991.72 992.04 992.44
1010.32 1010.48 1010.48 1010.32 1010.04 1010.08 1010.04 1010.04 1010.12 1010.16 1010.12 1010.04 1009.96 1009.88 1009.72 1009.52 1009.40 1009.24 1009.04 1008.84 1008.72 1008.44 1008.04 1007.44 1006.80 1006.16 1005.56 1004.84 1003.84 1002.92 1002.08 1001.40 1000.80 1000.20 999.52 998.72 997.92 996.92 995.88 995.12 994.36 993.60 992.96 992.60 992.04 991.52 991.00 990.60 990.20 989.92 989.32 988.64 988.16 988.12 988.00 987.96 988.36 988.80 989.16 989.40 989.48 989.72 990.08 990.20 990.24 990.32 990.52 990.76 991.00 991.28 991.56 991.88 992.12 992.32
1010.40 1010.56 1010.52 1010.32 1010.32 1010.32 1010.44 1010.48 1010.52 1010.44 1010.36 1010.28 1010.16 1010.04 1009.84 1009.64 1009.60 1009.40 1009.24 1009.08 1008.96 1008.72 1008.40 1007.84 1007.16 1006.36 1005.64 1004.92 1004.28 1003.52 1002.68 1002.00 1001.40 1000.64 999.96 999.44 998.40 997.28 996.16 995.12 995.08 994.52 993.48 992.68 992.12 991.88 991.52 991.12 990.76 990.04 989.60 989.32 988.68 988.40 988.68 989.20 989.56 989.36 989.24 989.40 989.48 989.60 989.76 990.12 990.32 990.44 990.52 990.76 991.00 991.12 991.32 991.60 991.88 992.20
1010.40 1010.48 1010.28 1010.08 1010.24 1010.52 1010.56 1010.52 1010.56 1010.52 1010.40 1010.36 1010.32 1010.24 1009.84 1009.76 1009.68 1009.56 1009.40 1009.16 1008.88 1008.64 1008.24 1007.72 1007.20 1006.68 1006.04 1005.36 1004.76 1004.00 1003.16 1002.48 1001.84 1001.12 1000.44 999.76 999.28 998.20 996.92 996.76 996.56 995.68 995.24 994.48 993.60 992.88 992.28 991.72 991.08 990.60 990.16 989.88 989.92 989.72 989.60 990.24 990.84 990.84 990.80 990.64 990.04 989.96 990.36 990.32 990.28 990.48 990.68 990.80 990.88 990.96 991.00 991.20 991.44 991.72
1010.20 1010.20 1010.04 1010.04 1010.28 1010.68 1010.64 1010.56 1010.64 1010.56 1010.52 1010.48 1010.32 1010.28 1010.00 1009.92 1009.76 1009.60 1009.60 1009.40 1009.16 1008.80 1008.44 1008.04 1007.56 1007.08 1006.52 1005.84 1005.12 1004.44 1003.72 1003.00 1002.32 1001.68 1001.04 1000.32 999.64 998.92 998.12 997.60 997.40 996.88 996.24 995.76 995.36 994.80 993.68 992.84 991.84 990.84 990.40 990.40 990.52 990.88 991.16 991.44 992.00 991.80 991.56 991.56 991.36 991.08 990.80 990.72 990.64 990.52 990.48 990.52 990.72 990.92 991.12 991.16 991.20 991.44
1010.04 1010.12 1009.96 1010.04 1010.40 1010.76 1010.72 1010.60 1010.64 1010.60 1010.52 1010.48 1010.48 1010.32 1010.28 1010.12 1009.96 1009.80 1009.72 1009.44 1009.28 1009.04 1008.68 1008.20 1007.92 1007.56 1007.12 1006.56 1005.88 1005.16 1004.40 1003.80 1003.04 1002.24 1001.56 1000.88 1000.08 999.76 999.16 998.52 998.08 997.48 997.00 996.44 996.20 995.64 995.16 994.52 993.48 991.80 990.80 990.40 990.48 991.20 991.72 992.16 992.40 992.68 992.24 992.00 992.04 991.80 991.40 991.08 990.80 990.60 990.52 990.52 990.60 990.84 991.04 991.20 991.20 991.16
1009.88 1009.96 1010.04 1010.08 1010.44 1010.80 1010.68 1010.56 1010.60 1010.56 1010.52 1010.52 1010.52 1010.48 1010.32 1010.16 1010.16 1010.00 1009.84 1009.56 1009.52 1009.32 1008.92 1008.44 1008.12 1007.80 1007.40 1007.00 1006.48 1005.84 1005.16 1004.52 1003.80 1003.04 1002.20 1001.56 1000.96 1000.44 1000.00 999.64 999.16 998.68 998.04 997.56 997.24 996.68 996.44 995.76 995.16 994.40 993.24 992.44 991.80 991.72 992.16 992.72 993.00 993.20 993.16 992.96 992.52 992.08 991.68 991.28 990.80 990.52 990.36 990.32 990.40 990.52 990.68 990.92 991.16 991.32
1009.68 1009.92 1010.04 1010.16 1010.44 1010.72 1010.64 1010.56 1010.56 1010.52 1010.56 1010.60 1010.56 1010.64 1010.64 1010.52 1010.40 1010.28 1010.12 1009.96 1009.72 1009.48 1009.20 1008.84 1008.52 1008.16 1007.80 1007.36 1006.88 1006.32 1005.68 1005.08 1004.48 1003.92 1003.24 1002.60 1002.00 1001.44 1000.76 1000.24 999.76 999.40 998.92 998.68 998.20 997.72 997.24 996.80 996.40 996.36 996.20 995.20 994.52 994.40 993.80 993.64 993.44 993.32 993.56 993.44 992.88 992.48 992.16 991.68 991.00 990.28 990.20 990.24 990.20 990.24 990.36 990.48 990.72 991.08
1009.52 1009.68 1009.92 1010.08 1010.32 1010.56 1010.52 1010.52 1010.56 1010.56 1010.60 1010.64 1010.64 1010.68 1010.72 1010.72 1010.60 1010.36 1010.20 1009.96 1009.80 1009.64 1009.36 1009.08 1008.76 1008.40 1008.08 1007.72 1007.20 1006.68 1006.20 1005.80 1005.32 1004.72 1004.16 1003.44 1002.64 1002.20 1001.92 1001.52 1000.92 1000.32 999.88 999.44 998.96 998.60 998.20 998.00 997.60 997.52 997.60 997.92 997.24 996.20 995.36 994.76 994.36 993.48 993.64 993.80 993.44 993.04 992.56 992.16 991.68 991.32 990.60 990.24 990.24 990.28 990.28 990.28 990.44 990.72
1009.24 1009.40 1009.64 1009.84 1010.04 1010.40 1010.44 1010.48 1010.56 1010.64 1010.64 1010.64 1010.64 1010.68 1010.64 1010.60 1010.52 1010.36 1010.12 1009.96 1009.92 1009.80 1009.60 1009.32 1009.00 1008.72 1008.48 1008.12 1007.72 1007.32 1006.80 1006.24 1005.68 1005.40 1004.96 1004.40 1003.88 1003.44 1002.88 1002.36 1001.76 1001.24 1000.44 999.96 999.52 999.12 998.76 998.56 998.52 998.48 998.48 998.64 998.60 998.04 997.88 997.48 995.72 994.76 994.36 994.08 994.00 993.60 993.12 992.92 992.56 992.00 991.20 990.40 990.28 990.24 990.28 990.40 990.40 990.52
1009.16 1009.28 1009.48 1009.68 1009.96 1010.28 1010.44 1010.44 1010.56 1010.68 1010.68 1010.64 1010.64 1010.68 1010.64 1010.56 1010.48 1010.36 1010.16 1010.00 1009.92 1009.92 1009.80 1009.56 1009.32 1009.00 1008.72 1008.44 1008.08 1007.72 1007.28 1007.00 1006.72 1006.36 1005.92 1005.44 1004.76 1004.36 1003.92 1003.48 1003.00 1002.44 1001.48 1000.92 1000.36 1000.04 999.72 999.64 999.48 999.28 999.00 998.52 998.04 997.52 997.28 997.04 996.68 995.68 994.88 994.40 994.28 994.16 993.92 993.48 993.16 992.60 991.60 990.92 990.52 990.16 990.24 990.24 990.44 990.56
1009.12 1009.28 1009.52 1009.72 1009.92 1010.16 1010.36 1010.40 1010.52 1010.64 1010.64 1010.64 1010.60 1010.60 1010.64 1010.64 1010.52 1010.32 1010.16 1010.08 1010.16 1010.08 1009.92 1009.76 1009.52 1009.32 1009.08 1008.76 1008.40 1008.08 1007.76 1007.40 1007.12 1006.84 1006.52 1006.12 1005.52 1005.00 1004.68 1004.16 1003.60 1003.20 1002.68 1002.20 1001.84 1001.28 1000.96 1000.84 1000.36 999.80 999.24 998.60 997.68 996.92 996.72 996.08 995.64 995.44 995.12 994.68 994.44 994.32 994.12 993.92 993.56 993.12 992.48 991.48 990.72 990.20 990.04 990.24 990.36 990.56
1008.96 1009.16 1009.48 1009.72 1009.84 1010.12 1010.32 1010.40 1010.48 1010.60 1010.60 1010.64 1010.60 1010.64 1010.64 1010.60 1010.52 1010.20 1010.28 1010.36 1010.36 1010.28 1010.20 1009.96 1009.76 1009.56 1009.32 1009.08 1008.80 1008.44 1008.20 1007.92 1007.64 1007.32 1007.04 1006.68 1006.16 1005.64 1005.20 1004.84 1004.48 1004.12 1003.68 1003.36 1003.08 1002.68 1002.00 1001.24 1000.52 999.92 999.40 998.80 997.84 997.28 997.76 997.84 997.32 996.68 996.32 995.76 994.80 994.24 994.12 993.80 993.36 993.08 992.68 992.28 992.04 991.76 991.36 990.64 990.48 990.40
1008.72 1008.96 1009.24 1009.56 1009.80 1009.96 1010.20 1010.32 1010.44 1010.56 1010.60 1010.60 1010.64 1010.64 1010.64 1010.52 1010.52 1010.44 1010.40 1010.36 1010.40 1010.40 1010.28 1010.16 1009.96 1009.80 1009.60 1009.36 1009.08 1008.88 1008.64 1008.28 1008.16 1007.92 1007.60 1007.24 1006.88 1006.44 1006.04 1005.84 1005.60 1005.24 1004.88 1004.44 1003.84 1003.08 1002.24 1001.48 1000.80 1000.28 999.88 999.40 999.16 998.92 998.96 998.60 998.00 997.72 997.28 996.72 996.08 995.24 994.28 993.80 993.72 993.36 992.96 992.76 992.80 992.80 992.72 992.56 992.20 991.28
1008.44 1008.72 1009.00 1009.40 1009.64 1009.84 1010.08 1010.24 1010.36 1010.48 1010.56 1010.60 1010.64 1010.64 1010.56 1010.52 1010.48 1010.44 1010.44 1010.40 1010.40 1010.44 1010.40 1010.28 1010.12 1009.92 1009.76 1009.52 1009.36 1009.08 1008.88 1008.68 1008.56 1008.28 1008.00 1007.76 1007.48 1007.16 1006.84 1006.52 1006.12 1005.76 1005.36 1004.88 1004.16 1003.36 1002.72 1002.04 1001.48 1001.08 1000.60 1000.44 1000.16 999.64 999.48 998.96 998.56 998.56 998.44 998.08 997.28 996.44 995.84 995.00 993.88 993.20 993.00 992.80 992.72 992.68 992.56 992.52 992.40 992.00
1008.28 1008.44 1008.76 1009.16 1009.48 1009.68 1009.88 1010.08 1010.24 1010.36 1010.48 1010.60 1010.60 1010.60 1010.56 1010.52 1010.48 1010.44 1010.40 1010.40 1010.40 1010.44 1010.44 1010.40 1010.24 1010.12 1009.92 1009.64 1009.40 1009.16 1009.04 1008.96 1008.88 1008.68 1008.44 1008.16 1007.84 1007.52 1007.24 1006.96 1006.52 1006.12 1005.76 1005.52 1004.84 1003.92 1003.32 1002.80 1002.28 1001.80 1001.48 1001.36 1000.96 1000.64 1000.28 999.80 999.52 999.32 999.12 998.76 998.16 997.56 997.16 996.52 995.56 994.76 994.12 993.20 992.92 992.88 992.72 992.48 992.12 991.68
Thickness
5214 5207 5199 5193 5186 5178 5169 5160 5153 5146 5138 5130 5123 5117 5109 5103 5105 5111 5120 5122 5118 5118 5119 5118 5122 5125 5127 5133 5138 5144 5152 5159 5166 5176 5186 5197 5208 5218 5228 5239 5249 5260 5273 5286 5300 5313 5325 5338 5351 5363 5375 5388 5403 5415 5427 5441 5453 5462 5472 5482 5492 5501 5512 5521 5531 5541 5548 5554 5561 5567 5574 5584 5592 5596
5211 5205 5197 5190 5182 5175 5166 5159 5152 5144 5137 5130 5121 5115 5109 5103 5100 5102 5111 5121 5119 5115 5118 5118 5118 5123 5125 5129 5135 5141 5147 5154 5161 5171 5181 5192 5202 5212 5223 5234 5245 5255 5266 5279 5293 5306 5319 5332 5345 5357 5368 5380 5394 5407 5421 5434 5446 5457 5468 5478 5486 5495 5506 5516 5525 5533 5540 5546 5553 5560 5565 5575 5587 5595
5208 5201 5194 5187 5179 5172 5164 5157 5150 5142 5133 5127 5120 5114 5109 5103 5102 5100 5103 5117 5120 5113 5115 5120 5118 5119 5124 5127 5132 5139 5145 5151 5158 5166 5177 5187 5197 5207 5219 5230 5240 5250 5260 5272 5286 5299 5313 5325 5338 5352 5362 5374 5386 5400 5414 5427 5438 5450 5461 5471 5480 5490 5502 5512 5520 5527 5535 5541 5546 5553 5559 5566 5578 5591
5205 5198 5191 5184 5176 5169 5163 5155 5147 5140 5132 5125 5118 5113 5109 5104 5102 5101 5100 5110 5120 5116 5112 5118 5119 5118 5122 5125 5129 5136 5143 5148 5155 5163 5173 5183 5193 5203 5214 5225 5235 5245 5256 5267 5279 5293 5306 5319 5332 5345 5357 5369 5381 5393 5408 5420 5430 5442 5454 5464 5475 5486 5496 5507 5515 5521 5530 5538 5541 5546 5553 5561 5571 5583
5202 5196 5189 5181 5174 5167 5160 5153 5145 5137 5129 5123 5116 5111 5108 5105 5101 5101 5100 5105 5116 5119 5114 5115 5119 5119 5120 5125 5127 5131 5140 5146 5151 5160 5168 5177 5187 5197 5208 5219 5229 5239 5250 5261 5273 5285 5299 5312 5326 5339 5351 5362 5375 5387 5402 5414 5424 5436 5447 5457 5469 5480 5491 5501 5509 5516 5524 5532 5537 5541 5548 5556 5565 5573
5200 5194 5187 5180 5173 5166 5159 5151 5143 5135 5127 5120 5115 5109 5106 5105 5101 5100 5100 5101 5109 5118 5118 5115 5118 5119 5119 5123 5126 5128 5136 5143 5148 5156 5163 5171 5180 5190 5202 5213 5224 5234 5245 5256 5267 5279 5292 5306 5319 5332 5345 5356 5369 5381 5395 5409 5420 5430 5441 5452 5463 5475 5485 5494 5503 5511 5519 5528 5535 5539 5544 5549 5556 5563
5198 5192 5186 5179 5173 5165 5157 5149 5140 5132 5124 5117 5113 5109 5104 5103 5101 5099 5098 5099 5103 5113 5119 5116 5116 5119 5120 5123 5126 5127 5132 5139 5145 5151 5159 5166 5174 5185 5196 5208 5219 5229 5240 5250 5261 5273 5286 5300 5313 5326 5338 5350 5363 5375 5388 5402 5415 5425 5436 5446 5459 5471 5479 5487 5497 5507 5516 5524 5531 5535 5539 5543 5550 5557
5197 5191 5185 5179 5172 5164 5155 5148 5139 5130 5122 5116 5110 5107 5103 5101 5101 5100 5099 5100 5102 5108 5116 5116 5114 5118 5121 5122 5123 5125 5130 5135 5141 5148 5155 5162 5171 5181 5191 5202 5213 5224 5234 5245 5257 5268 5280 5293 5307 5320 5332 5344 5357 5369 5382 5395 5408 5419 5431 5442 5453 5466 5474 5480 5491 5502 5510 5519 5527 5530 5534 5538 5545 5554
5196 5191 5185 5179 5171 5163 5154 5146 5138 5129 5121 5115 5109 5105 5103 5102 5103 5104 5103 5104 5105 5107 5112 5116 5118 5119 5120 5121 5121 5121 5125 5131 5138 5144 5152 5159 5167 5176 5185 5196 5207 5217 5228 5240 5251 5263 5274 5286 5299 5312 5325 5338 5350 5363 5375 5389 5402 5413 5425 5436 5447 5459 5469 5476 5484 5495 5505 5513 5520 5525 5529 5533 5540 5547
5196 5191 5185 5178 5170 5161 5154 5145 5138 5129 5120 5114 5109 5106 5104 5105 5106 5107 5107 5108 5109 5109 5110 5115 5119 5119 5118 5119 5119 5119 5120 5126 5132 5139 5147 5155 5162 5171 5180 5191 5201 5211 5222 5234 5245 5257 5268 5280 5292 5306 5320 5332 5345 5358 5370 5383 5396 5408 5420 5430 5441 5452 5463 5470 5479 5489 5499 5506 5512 5518 5523 5527 5533 5540
5197 5191 5184 5177 5169 5160 5152 5145 5137 5129 5122 5115 5111 5109 5108 5108 5109 5110 5111 5112 5112 5111 5111 5112 5114 5116 5116 5116 5118 5118 5118 5120 5125 5131 5140 5150 5157 5164 5174 5184 5195 5204 5214 5227 5238 5250 5262 5273 5286 5300 5315 5328 5341 5353 5366 5378 5391 5403 5414 5425 5436 5447 5457 5465 5473 5483 5491 5498 5505 5511 5514 5519 5526 5533
5196 5191 5183 5176 5168 5159 5152 5145 5138 5131 5124 5119 5115 5112 5111 5111 5112 5113 5115 5115 5112 5110 5109 5109 5110 5112 5114 5114 5115 5116 5115 5118 5122 5125 5133 5143 5150 5156 5165 5176 5185 5195 5206 5217 5229 5241 5252 5264 5278 5292 5308 5323 5336 5349 5361 5373 5386 5397 5408 5420 5431 5443 5452 5460 5467 5477 5485 5491 5498 5503 5506 5510 5517 5525
5196 5190 5183 5175 5167 5159 5153 5146 5140 5132 5125 5120 5116 5115 5114 5113 5115 5116 5117 5115 5111 5108 5108 5109 5109 5111 5113 5113 5113 5113 5114 5115 5118 5121 5126 5134 5141 5148 5159 5171 5178 5186 5198 5209 5222 5234 5245 5258 5271 5286 5302 5318 5331 5343 5355 5368 5381 5393 5404 5415 5427 5438 5448 5455 5462 5471 5478 5484 5490 5495 5499 5504 5510 5517
5195 5189 5182 5174 5167 5159 5152 5145 5138 5131 5124 5119 5116 5116 5116 5116 5117 5118 5117 5113 5110 5108 5108 5109 5110 5110 5112 5112 5110 5112 5113 5113 5114 5116 5119 5127 5135 5141 5153 5167 5175 5180 5190 5202 5215 5229 5240 5252 5266 5281 5297 5314 5326 5338 5352 5365 5378 5391 5402 5412 5422 5432 5442 5449 5455 5463 5471 5477 5481 5487 5494 5498 5503 5509
5195 5188 5181 5173 5166 5158 5151 5143 5135 5129 5122 5119 5117 5116 5117 5117 5117 5117 5115 5112 5110 5109 5110 5110 5108 5109 5111 5111 5109 5109 5110 5110 5110 5112 5114 5120 5127 5133 5143 5158 5169 5176 5182 5194 5210 5225 5237 5250 5265 5280 5296 5311 5324 5337 5352 5365 5375 5387 5398 5407 5415 5424 5434 5441 5447 5454 5463 5470 5475 5480 5487 5493 5497 5503
5194 5187 5179 5172 5165 5158 5150 5142 5134 5127 5121 5118 5117 5118 5118 5117 5116 5114 5112 5110 5110 5109 5109 5110 5109 5109 5110 5110 5107 5106 5106 5107 5109 5110 5112 5115 5120 5127 5136 5148 5160 5167 5173 5185 5202 5219 5233 5247 5262 5280 5296 5311 5325 5339 5352 5362 5372 5382 5393 5403 5410 5417 5426 5434 5440 5447 5455 5464 5471 5476 5481 5487 5492 5497
5193 5186 5178 5171 5164 5157 5150 5142 5134 5126 5121 5118 5118 5119 5118 5117 5115 5114 5112 5109 5108 5108 5108 5110 5111 5110 5109 5109 5109 5106 5106 5108 5109 5110 5112 5114 5118 5125 5133 5143 5153 5158 5163 5177 5196 5214 5231 5244 5259 5277 5294 5309 5325 5340 5351 5360 5369 5379 5389 5398 5407 5413 5421 5429 5434 5441 5449 5457 5464 5472 5477 5482 5487 5491
5191 5184 5177 5170 5163 5156 5149 5141 5134 5127 5123 5120 5120 5119 5117 5116 5115 5114 5113 5110 5109 5110 5110 5112 5114 5113 5111 5112 5114 5113 5111 5111 5113 5114 5116 5117 5119 5125 5132 5141 5149 5153 5159 5171 5188 5210 5230 5241 5255 5275 5290 5305 5324 5338 5348 5358 5367 5376 5385 5394 5403 5411 5418 5424 5429 5435 5443 5450 5458 5467 5472 5477 5482 5488
5189 5182 5176 5169 5163 5155 5148 5141 5135 5129 5126 5124 5122 5119 5117 5116 5115 5115 5113 5112 5113 5115 5115 5115 5116 5116 5117 5118 5120 5120 5119 5118 5118 5119 5119 5120 5121 5125 5130 5137 5144 5150 5156 5168 5184 5208 5228 5236 5251 5274 5287 5300 5319 5336 5345 5355 5364 5372 5381 5390 5398 5407 5413 5420 5424 5431 5439 5446 5453 5461 5467 5472 5477 5484
5186 5180 5174 5168 5162 5154 5147 5141 5136 5131 5129 5127 5122 5118 5117 5117 5115 5116 5116 5116 5116 5117 5118 5119 5119 5121 5123 5124 5124 5124 5122 5121 5121 5121 5120 5120 5120 5122 5127 5134 5142 5148 5157 5172 5190 5209 5225 5237 5253 5273 5285 5296 5315 5332 5342 5352 5361 5369 5377 5385 5393 5401 5409 5415 5421 5428 5436 5442 5448 5454 5461 5467 5472 5478
5184 5179 5173 5167 5161 5153 5146 5142 5138 5134 5131 5126 5121 5117 5117 5115 5114 5116 5119 5119 5119 5119 5118 5119 5120 5122 5125 5126 5126 5124 5122 5121 5121 5119 5118 5118 5117 5118 5124 5132 5141 5149 5162 5180 5195 5209 5226 5243 5257 5271 5283 5296 5313 5329 5341 5351 5360 5366 5373 5380 5388 5396 5403 5410 5417 5424 5431 5439 5445 5450 5454 5459 5465 5469
5183 5177 5172 5167 5160 5153 5147 5143 5140 5137 5132 5126 5121 5117 5116 5114 5113 5117 5120 5121 5122 5121 5120 5119 5120 5121 5123 5125 5125 5123 5121 5120 5120 5117 5115 5115 5114 5115 5121 5128 5138 5150 5168 5186 5200 5211 5229 5246 5259 5270 5283 5298 5314 5329 5340 5348 5357 5364 5369 5376 5384 5391 5397 5404 5412 5419 5426 5434 5441 5445 5448 5452 5456 5458
5181 5175 5170 5165 5160 5154 5148 5144 5142 5138 5132 5127 5121 5117 5113 5112 5114 5118 5120 5119 5119 5121 5121 5121 5121 5122 5123 5124 5124 5123 5121 5120 5120 5118 5116 5115 5115 5116 5121 5127 5135 5149 5171 5193 5205 5212 5228 5247 5261 5272 5286 5302 5317 5328 5337 5344 5352 5359 5365 5371 5378 5385 5392 5398 5405 5412 5420 5428 5435 5440 5442 5444 5446 5449
5179 5174 5168 5163 5158 5152 5148 5144 5142 5139 5133 5127 5121 5115 5112 5113 5116 5119 5118 5116 5116 5118 5119 5120 5122 5123 5124 5125 5125 5123 5123 5123 5123 5123 5120 5119 5120 5121 5124 5130 5138 5149 5171 5194 5205 5211 5228 5250 5267 5278 5291 5307 5320 5326 5333 5341 5349 5355 5361 5367 5372 5379 5385 5391 5398 5405 5413 5420 5428 5433 5437 5438 5440 5444
5177 5172 5167 5161 5155 5150 5147 5145 5142 5138 5133 5127 5119 5115 5114 5115 5117 5116 5114 5113 5115 5116 5118 5121 5122 5124 5126 5126 5125 5125 5126 5127 5128 5128 5127 5126 5127 5128 5130 5136 5144 5156 5175 5193 5203 5212 5228 5251 5271 5284 5296 5309 5319 5325 5330 5336 5344 5351 5356 5362 5368 5372 5377 5384 5391 5399 5406 5414 5420 5426 5431 5434 5437 5443
5176 5171 5165 5159 5153 5150 5147 5144 5141 5135 5130 5125 5119 5117 5116 5115 5113 5112 5110 5111 5113 5115 5118 5120 5122 5124 5126 5128 5129 5130 5131 5132 5132 5133 5133 5134 5136 5139 5143 5147 5153 5164 5181 5194 5203 5212 5227 5248 5272 5290 5302 5311 5319 5325 5329 5332 5338 5344 5351 5357 5363 5367 5372 5379 5385 5391 5398 5406 5412 5419 5425 5430 5435 5442
5175 5169 5163 5157 5153 5151 5148 5144 5139 5133 5128 5124 5120 5118 5116 5112 5110 5108 5107 5109 5111 5113 5116 5119 5121 5124 5126 5127 5130 5133 5135 5135 5137 5138 5140 5143 5147 5152 5157 5161 5165 5174 5186 5197 5206 5216 5228 5246 5268 5286 5301 5313 5319 5323 5328 5332 5335 5339 5345 5352 5359 5364 5369 5374 5379 5384 5390 5397 5404 5411 5416 5421 5427 5435
5173 5167 5162 5157 5155 5152 5147 5142 5137 5131 5127 5123 5120 5116 5113 5109 5106 5105 5106 5108 5109 5111 5114 5117 5119 5121 5123 5125 5128 5132 5134 5136 5138 5141 5145 5150 5155 5160 5166 5172 5177 5183 5191 5199 5209 5221 5232 5247 5264 5278 5293 5310 5320 5323 5327 5331 5334 5337 5341 5346 5353 5359 5365 5370 5373 5377 5382 5387 5394 5400 5406 5413 5420 5428
5173 5168 5164 5159 5155 5151 5145 5140 5135 5130 5126 5123 5119 5114 5110 5106 5103 5102 5103 5105 5106 5109 5111 5114 5116 5119 5121 5124 5127 5130 5134 5137 5140 5144 5149 5155 5161 5167 5172 5179 5185 5191 5196 5203 5212 5225 5236 5249 5263 5273 5286 5304 5317 5323 5327 5329 5331 5334 5338 5342 5347 5353 5360 5365 5369 5371 5374 5379 5385 5392 5400 5409 5416 5422
5173 5167 5163 5158 5153 5148 5143 5138 5133 5129 5126 5122 5117 5112 5108 5104 5102 5101 5101 5102 5103 5105 5108 5110 5114 5117 5120 5123 5127 5131 5136 5139 5142 5147 5152 5158 5164 5170 5177 5185 5191 5196 5203 5210 5218 5229 5240 5250 5261 5270 5282 5297 5309 5316 5323 5327 5329 5331 5335 5339 5344 5347 5353 5359 5364 5367 5370 5374 5378 5385 5393 5400 5405 5411
5170 5164 5160 5156 5151 5147 5142 5137 5133 5129 5126 5122 5117 5112 5107 5104 5101 5100 5099 5099 5099 5101 5104 5107 5111 5115 5119 5123 5128 5132 5136 5140 5143 5147 5151 5157 5163 5170 5179 5187 5193 5201 5208 5216 5223 5231 5240 5249 5257 5266 5278 5292 5302 5309 5316 5321 5324 5328 5332 5337 5341 5345 5349 5354 5358 5363 5366 5369 5371 5376 5382 5388 5394 5400
5167 5161 5157 5154 5151 5146 5141 5137 5133 5129 5125 5121 5116 5111 5107 5103 5101 5098 5098 5098 5098 5099 5102 5105 5110 5115 5119 5123 5127 5131 5136 5140 5143 5147 5151 5156 5161 5170 5180 5186 5191 5199 5209 5217 5224 5231 5238 5245 5254 5264 5275 5285 5293 5302 5309 5311 5313 5320 5326 5331 5338 5343 5345 5348 5354 5358 5361 5363 5366 5370 5375 5381 5387 5394
5165 5160 5157 5154 5150 5145 5140 5136 5132 5128 5124 5120 5115 5111 5108 5104 5100 5098 5097 5097 5097 5099 5101 5105 5108 5113 5117 5121 5125 5130 5135 5139 5142 5147 5152 5156 5161 5168 5177 5181 5185 5192 5201 5209 5217 5226 5234 5242 5252 5263 5272 5277 5283 5292 5298 5298 5300 5306 5314 5320 5328 5336 5339 5344 5349 5354 5356 5359 5363 5368 5372 5378 5383 5389
5164 5160 5157 5154 5149 5143 5138 5135 5131 5126 5123 5120 5115 5112 5108 5104 5101 5099 5096 5096 5096 5097 5099 5103 5106 5109 5113 5119 5124 5128 5133 5137 5142 5146 5151 5155 5160 5165 5172 5177 5181 5187 5194 5201 5208 5217 5226 5236 5248 5261 5271 5275 5278 5281 5284 5286 5289 5295 5303 5310 5317 5325 5332 5338 5344 5350 5354 5358 5362 5364 5368 5374 5379 5384
5163 5159 5156 5152 5147 5141 5137 5135 5130 5127 5124 5120 5116 5113 5109 5105 5102 5099 5096 5095 5095 5096 5098 5101 5103 5106 5110 5115 5119 5124 5129 5134 5139 5144 5149 5154 5159 5163 5167 5171 5175 5181 5189 5195 5201 5208 5215 5224 5237 5252 5264 5273 5276 5277 5278 5279 5281 5286 5294 5301 5308 5316 5325 5332 5338 5345 5350 5354 5357 5359 5363 5368 5374 5379
5162 5158 5155 5151 5146 5139 5137 5134 5131 5127 5124 5120 5117 5113 5109 5106 5102 5099 5097 5095 5093 5094 5096 5098 5101 5103 5107 5111 5115 5120 5125 5130 5135 5140 5146 5151 5155 5158 5163 5167 5171 5176 5183 5188 5194 5200 5207 5214 5223 5233 5245 5257 5265 5268 5270 5272 5275 5279 5284 5291 5300 5309 5317 5325 5333 5341 5346 5350 5353 5357 5360 5364 5368 5372
5162 5158 5154 5150 5145 5139 5137 5134 5131 5127 5124 5120 5116 5113 5109 5106 5102 5099 5097 5095 5093 5092 5093 5095 5098 5100 5104 5108 5112 5116 5121 5126 5130 5135 5140 5145 5150 5155 5159 5163 5168 5172 5177 5182 5187 5193 5199 5205 5212 5216 5222 5231 5241 5250 5257 5262 5269 5274 5278 5284 5293 5303 5309 5317 5327 5335 5341 5346 5349 5354 5357 5361 5363 5365
5162 5158 5153 5150 5145 5139 5137 5134 5131 5127 5123 5119 5116 5113 5109 5106 5103 5100 5097 5096 5093 5092 5092 5093 5095 5097 5100 5104 5109 5113 5118 5122 5126 5130 5135 5140 5145 5150 5153 5157 5162 5166 5172 5176 5181 5187 5192 5197 5202 5206 5209 5212 5219 5230 5239 5248 5258 5268 5273 5277 5284 5294 5301 5308 5316 5324 5332 5340 5344 5348 5352 5355 5357 5358
5162 5158 5153 5150 5145 5140 5136 5133 5130 5126 5123 5119 5116 5113 5110 5107 5103 5101 5099 5097 5094 5092 5091 5091 5093 5094 5096 5100 5104 5108 5113 5118 5122 5126 5129 5133 5138 5142 5146 5151 5155 5161 5167 5172 5177 5182 5187 5190 5194 5198 5201 5204 5209 5217 5223 5231 5243 5256 5265 5270 5277 5284 5291 5298 5304 5312 5323 5332 5338 5341 5346 5350 5352 5354
5161 5157 5153 5150 5146 5140 5136 5133 5129 5126 5122 5119 5116 5113 5110 5107 5104 5102 5100 5098 5095 5093 5091 5091 5091 5091 5093 5096 5100 5104 5109 5112 5116 5119 5123 5127 5132 5136 5139 5144 5149 5153 5160 5166 5169 5175 5180 5182 5186 5190 5195 5201 5209 5216 5221 5228 5238 5249 5258 5265 5271 5275 5281 5288 5294 5302 5313 5324 5331 5337 5341 5343 5346 5348
5159 5156 5152 5148 5145 5140 5136 5133 5129 5125 5122 5119 5116 5113 5111 5108 5105 5104 5101 5098 5095 5093 5091 5090 5090 5090 5091 5093 5096 5100 5105 5108 5111 5115 5118 5122 5126 5130 5134 5139 5144 5148 5153 5158 5161 5166 5170 5174 5179 5186 5192 5199 5210 5219 5223 5228 5235 5243 5251 5258 5264 5269 5274 5280 5287 5294 5304 5314 5323 5330 5335 5338 5341 5342
5159 5155 5151 5148 5145 5140 5136 5132 5129 5125 5122 5119 5116 5113 5111 5108 5106 5104 5102 5098 5095 5093 5091 5090 5089 5089 5089 5090 5092 5095 5099 5103 5106 5110 5113 5117 5121 5126 5130 5134 5137 5141 5145 5149 5152 5157 5163 5170 5178 5184 5190 5197 5206 5211 5214 5218 5225 5232 5239 5247 5257 5264 5270 5276 5282 5289 5296 5303 5308 5314 5319 5325 5331 5337
5158 5155 5151 5147 5144 5140 5136 5132 5129 5125 5122 5119 5116 5113 5111 5108 5106 5104 5102 5099 5096 5094 5092 5090 5089 5088 5088 5088 5089 5091 5094 5098 5101 5105 5109 5112 5116 5120 5124 5126 5130 5133 5137 5141 5146 5152 5160 5167 5174 5180 5185 5191 5197 5201 5203 5208 5216 5222 5227 5234 5244 5254 5263 5271 5277 5283 5288 5293 5297 5300 5305 5310 5317 5327
5159 5156 5152 5147 5144 5140 5136 5132 5129 5125 5122 5119 5116 5113 5111 5109 5106 5104 5102 5100 5097 5094 5092 5090 5089 5088 5088 5088 5089 5089 5091 5093 5096 5099 5103 5107 5110 5114 5117 5120 5124 5128 5132 5137 5142 5149 5156 5162 5168 5174 5178 5182 5187 5191 5196 5202 5208 5212 5216 5222 5231 5240 5249 5259 5268 5276 5283 5288 5292 5295 5299 5304 5310 5318
5158 5155 5152 5147 5144 5140 5136 5132 5128 5125 5122 5119 5116 5113 5110 5108 5106 5104 5102 5100 5098 5095 5093 5091 5089 5088 5088 5088 5088 5089 5089 5090 5091 5095 5098 5102 5105 5109 5112 5116 5120 5124 5127 5131 5137 5143 5149 5155 5161 5166 5169 5173 5178 5183 5189 5194 5199 5203 5207 5212 5220 5227 5234 5242 5252 5262 5272 5280 5286 5290 5295 5300 5307 5314